Total_Precipitation_Accumulation
1.63 1.77 1.79 1.79 1.71 1.86 1.92 1.90 1.92 1.93 1.92 2.01 2.13 2.30 2.36 2.45 2.57 2.71 2.49 2.61 2.76 2.92 2.79 2.81 2.86 2.95 2.92 2.82 2.91 2.99 3.20 3.50 3.37 2.77 2.63 2.59 2.46 2.21 2.18 2.08 2.03 2.16 2.20
1.62 1.79 1.87 2.05 1.98 1.91 1.90 1.97 2.04 2.14 2.24 2.20 2.26 2.34 2.25 2.33 2.59 2.64 2.57 2.63 2.69 2.72 2.90 3.19 3.09 3.15 3.10 2.92 3.05 2.98 3.11 3.50 3.36 2.97 2.90 2.91 2.84 2.58 2.43 2.22 1.98 1.99 2.15
1.77 1.90 2.04 2.14 2.04 1.95 2.08 2.18 2.20 2.36 2.54 2.58 2.58 2.44 2.37 2.38 2.47 2.58 2.67 2.69 2.69 2.73 2.87 2.96 3.02 3.27 3.15 3.05 2.96 2.92 3.05 3.26 3.43 3.11 2.98 3.19 3.04 2.73 2.60 2.29 2.07 2.19 1.96
1.91 2.14 2.23 2.29 2.19 2.14 2.26 2.37 2.37 2.45 2.61 2.75 2.72 2.66 2.59 2.46 2.33 2.32 2.40 2.49 2.63 2.76 2.80 2.72 2.82 3.07 3.18 3.19 2.96 2.98 3.15 3.27 3.35 3.25 3.08 3.20 3.23 3.13 2.96 2.66 2.54 2.38 2.19
2.11 2.27 2.30 2.41 2.41 2.43 2.55 2.57 2.49 2.53 2.57 2.75 2.81 2.84 2.78 2.56 2.28 2.36 2.53 2.51 2.69 2.67 2.56 2.46 2.46 2.73 2.97 3.07 2.78 2.85 3.07 3.08 3.08 3.11 3.08 3.16 3.23 3.38 3.21 2.88 2.63 2.48 2.24
2.27 2.55 2.60 2.66 2.63 2.70 2.84 2.90 2.82 2.82 2.95 2.98 2.85 2.78 2.69 2.28 2.46 2.52 2.53 2.56 2.71 2.69 2.59 2.47 2.36 2.31 2.33 2.52 2.64 2.78 2.95 2.94 2.95 3.13 3.27 3.33 3.33 3.41 3.41 3.18 2.88 2.64 2.38
2.32 2.56 2.74 2.83 2.89 2.97 3.04 3.05 3.01 3.12 3.31 3.29 3.12 2.91 2.73 2.67 2.65 2.43 2.39 2.27 2.32 2.40 2.51 2.48 2.16 1.95 2.09 2.02 2.26 2.41 2.49 2.58 2.69 2.95 3.11 3.16 3.29 3.45 3.58 3.29 3.09 2.89 2.59
2.59 2.68 2.80 2.90 2.96 3.03 3.10 3.00 3.04 3.19 3.25 3.26 3.14 2.98 2.82 2.72 2.64 2.35 2.33 2.10 2.08 2.13 2.23 2.28 2.22 2.07 2.04 2.18 2.18 2.08 1.99 2.05 2.25 2.32 2.46 2.74 2.97 3.22 3.45 3.36 3.31 3.01 2.65
2.78 2.77 2.74 2.86 2.99 3.05 3.06 3.06 3.12 3.17 3.06 2.91 2.81 2.78 2.73 2.77 2.80 2.46 2.29 2.04 2.07 2.03 2.04 2.08 2.11 2.03 2.22 2.20 2.10 2.04 2.02 2.00 2.09 2.22 2.23 2.39 2.65 2.81 3.00 3.14 3.12 2.99 2.69
2.76 2.84 2.84 2.95 3.02 3.04 3.14 3.20 3.14 3.09 3.00 2.88 2.69 2.65 2.64 2.61 2.70 2.34 2.20 2.00 2.01 2.00 2.05 2.06 2.10 2.02 2.09 1.99 1.90 1.98 1.94 1.95 2.06 2.07 2.07 2.08 2.16 2.49 2.87 2.71 2.77 2.86 2.61
2.64 2.86 3.07 3.20 3.22 3.22 3.25 3.15 3.07 2.98 3.00 2.93 2.77 2.65 2.61 2.53 2.57 2.30 2.12 1.85 1.97 2.19 2.19 2.11 2.11 2.13 1.85 1.79 1.75 1.76 1.82 1.89 2.02 1.90 1.79 1.80 1.92 2.11 2.36 2.45 2.45 2.47 2.44
2.41 2.63 2.79 2.97 3.09 3.07 3.14 3.08 3.13 3.07 2.93 2.78 2.65 2.49 2.40 2.40 2.30 2.22 2.04 1.85 1.93 2.07 2.16 2.22 2.25 2.17 1.81 1.67 1.54 1.52 1.63 1.63 1.66 1.73 1.70 1.68 1.75 1.89 2.07 2.23 2.31 2.39 2.33
2.22 2.42 2.65 2.82 3.09 3.23 3.26 3.20 3.09 2.99 2.78 2.57 2.42 2.27 2.27 2.33 2.32 2.16 1.95 1.86 1.92 1.93 2.01 2.17 2.06 1.95 1.76 1.52 1.46 1.48 1.51 1.44 1.52 1.66 1.70 1.67 1.66 1.76 2.03 2.37 2.56 2.67 2.60
2.22 2.32 2.49 2.63 2.82 3.08 3.17 3.10 2.93 2.67 2.50 2.45 2.37 2.32 2.36 2.40 2.29 2.11 1.89 1.75 1.82 1.86 1.90 1.98 1.97 1.92 1.84 1.68 1.58 1.49 1.41 1.45 1.53 1.58 1.71 1.85 1.97 2.06 2.18 2.30 2.49 2.58 2.61
2.09 2.11 2.15 2.34 2.54 2.73 2.77 2.69 2.54 2.41 2.48 2.50 2.43 2.39 2.31 2.22 2.29 2.21 1.96 1.83 1.82 1.88 1.89 1.89 1.92 2.01 2.03 1.97 1.88 1.78 1.73 1.73 1.73 1.71 1.84 1.98 1.99 2.01 2.04 2.19 2.36 2.42 2.31
2.13 2.07 1.99 1.95 2.06 2.34 2.62 2.70 2.59 2.38 2.40 2.30 2.19 2.14 2.07 2.00 2.03 2.02 1.91 1.84 1.90 1.99 1.86 1.89 2.04 2.10 2.12 2.12 2.10 1.96 1.83 1.73 1.69 1.77 1.82 1.90 1.97 2.00 2.02 2.14 2.30 2.33 2.18
2.15 2.10 1.98 1.87 1.91 2.09 2.41 2.70 2.78 2.57 2.32 2.16 1.92 1.74 1.67 1.65 1.67 1.74 1.80 1.77 1.76 1.74 1.61 1.73 1.93 1.98 2.01 2.02 2.02 1.91 1.84 1.79 1.80 1.89 1.98 2.03 2.06 2.05 2.06 2.10 2.22 2.28 2.20
2.07 2.08 1.95 1.83 1.91 2.03 2.25 2.54 2.73 2.68 2.46 2.17 1.85 1.63 1.55 1.50 1.53 1.60 1.66 1.58 1.50 1.43 1.36 1.50 1.66 1.81 1.93 2.04 2.09 2.07 2.00 1.96 1.93 1.90 1.99 2.07 2.16 2.22 2.19 2.12 2.18 2.26 2.23
2.00 2.03 1.99 1.91 1.91 1.92 2.11 2.41 2.60 2.62 2.49 2.28 1.97 1.66 1.53 1.45 1.45 1.58 1.54 1.38 1.34 1.33 1.31 1.34 1.44 1.65 1.90 2.05 2.15 2.23 2.23 2.15 2.01 1.97 2.01 2.10 2.16 2.25 2.24 2.15 2.17 2.32 2.31
1.77 1.82 1.73 1.70 1.76 1.74 1.80 1.97 2.25 2.42 2.37 2.31 2.06 1.63 1.37 1.30 1.32 1.52 1.60 1.59 1.53 1.39 1.31 1.35 1.43 1.57 1.77 1.99 2.07 2.05 2.08 2.04 2.01 2.00 1.99 2.06 2.14 2.20 2.18 2.15 2.18 2.28 2.25
1.54 1.59 1.56 1.42 1.54 1.62 1.70 1.84 2.11 2.33 2.28 2.19 2.01 1.71 1.51 1.38 1.42 1.46 1.56 1.66 1.67 1.59 1.50 1.43 1.43 1.49 1.63 1.78 1.85 1.89 1.94 1.93 1.90 1.94 1.95 1.96 2.04 2.14 2.21 2.21 2.17 2.20 2.23
1.32 1.34 1.34 1.28 1.38 1.48 1.58 1.82 2.08 2.21 2.13 2.03 1.92 1.73 1.64 1.56 1.56 1.60 1.61 1.58 1.53 1.44 1.40 1.43 1.45 1.51 1.59 1.63 1.70 1.82 1.90 1.90 1.86 1.84 1.87 1.90 1.95 2.01 2.11 2.19 2.13 2.16 2.20
1.22 1.24 1.26 1.25 1.29 1.40 1.55 1.72 1.87 1.92 1.90 1.89 1.75 1.60 1.57 1.60 1.58 1.58 1.60 1.56 1.47 1.38 1.38 1.45 1.49 1.51 1.54 1.54 1.56 1.66 1.74 1.75 1.78 1.78 1.85 1.93 1.96 2.00 2.09 2.16 2.17 2.25 2.27
1.30 1.35 1.39 1.43 1.47 1.54 1.61 1.71 1.75 1.72 1.66 1.63 1.60 1.59 1.62 1.62 1.59 1.57 1.56 1.55 1.54 1.53 1.49 1.44 1.43 1.41 1.44 1.48 1.49 1.49 1.55 1.57 1.56 1.59 1.65 1.78 1.87 1.91 1.98 2.05 2.09 2.13 2.21
1.23 1.36 1.42 1.49 1.54 1.60 1.67 1.69 1.69 1.64 1.54 1.49 1.49 1.52 1.51 1.49 1.56 1.57 1.54 1.52 1.51 1.45 1.33 1.30 1.30 1.25 1.21 1.22 1.22 1.23 1.37 1.37 1.29 1.31 1.40 1.57 1.67 1.71 1.77 1.87 1.96 2.03 2.10
1.11 1.21 1.35 1.38 1.42 1.52 1.62 1.68 1.63 1.59 1.52 1.47 1.48 1.51 1.48 1.45 1.46 1.47 1.45 1.43 1.42 1.38 1.36 1.33 1.23 1.19 1.18 1.18 1.18 1.25 1.26 1.16 1.11 1.15 1.15 1.26 1.45 1.55 1.64 1.75 1.81 1.97 2.04